Regional Weather Roundup
Issued by NWS

Home | Current Version | Previous Version | Text Only | Print | Product List | Glossary Off
Versions: 1 2 3 4 5 6 7 8 9 10 11 12 13 14 15 16 17 18 19 20 21 22 23 24 25 26 27 28 29 30 31 32 33 34 35 36 37 38 39 40 41 42 43 44 45 46 47 48 49 50

000
ASUS45 KCYS 280310
RWRWY

WYOMING REGIONAL WEATHER ROUNDUP
NATIONAL WEATHER SERVICE CHEYENNE WY
800 PM MST TUE JAN 27 2015

NOTE:  "FAIR" INDICATES FEW OR NO CLOUDS BELOW 12,000 FEET
WITH NO SIGNIFICANT WEATHER AND/OR OBSTRUCTIONS TO VISIBILITY.

WYZ001-280400-
YELLOWSTONE NATIONAL PARK

CITY           SKY/WX    TMP DP  RH WIND       PRES   REMARKS
LK YELLOWSTONE   N/A     33  27  78 CALM      30.14F
W YELLOWSTONE  NOT AVBL

$$
WYZ002>013-054>058-071-098>099-280400-
NORTHERN WYOMING

CITY           SKY/WX    TMP DP  RH WIND       PRES   REMARKS
JACKSON        CLOUDY    27  27 100 CALM      30.14F
CODY           CLOUDY    54  25  32 W13G21    29.96S
GREYBULL       FAIR      31  27  85 SW3       29.96S
WORLAND        FAIR      31  27  85 CALM      29.95F
SHERIDAN       FAIR      35  28  75 CALM      29.87S
BUFFALO        FAIR      46  24  42 SW6       29.90S
GILLETTE       FAIR      46  30  53 SW14G23   29.86F
HULETT           N/A    N/A N/A N/A MISG        N/A
NEWCASTLE      FAIR      41  28  60 CALM      29.93F

$$
WYZ014>020-022>026-101>103-280400-
CENTRAL WYOMING

CITY           SKY/WX    TMP DP  RH WIND       PRES   REMARKS
BIG PINEY      FAIR      26  22  84 NE3       30.16S
PINEDALE       FAIR      28  27  93 CALM      30.18R
DUBOIS         CLOUDY    39  28  65 W20       30.07F WCI  30
LANDER         FAIR      36  28  73 CALM      30.01S
RIVERTON       FAIR      33  28  81 SW5       30.03S WCI  29
CASPER         FAIR      46  27  47 SW15      30.02S
DOUGLAS        FAIR      53  25  33 NW6G18    29.99R

$$
WYZ021-027>030-104>119-280400-
SOUTHERN WYOMING

CITY           SKY/WX    TMP DP  RH WIND       PRES   REMARKS
EVANSTON       FAIR      36  30  79 S7        30.18S WCI  30
KEMMERER       FAIR      34  30  86 W3        30.18S
FORT BRIDGER   CLOUDY    38  34  84 SW9       30.20S WCI  32
ROCK SPRINGS   CLOUDY    38  24  57 S7        30.16S WCI  33
DIXON          MOCLDY    40  29  64 SW6       30.24S
RAWLINS        FAIR      39  27  62 SW10      30.17R WCI  32
SARATOGA       FAIR      37  27  65 SW13      30.17F WCI  29
LARAMIE        FAIR      38  22  52 SW6       30.13S WCI  33
CHEYENNE       FAIR      45  21  38 W16       30.05F
TORRINGTON     FAIR      47  27  45 W6        29.96S
PINE BLUFFS    FAIR      34  25  69 CALM      30.03S

$$



USA.gov is the U.S. government's official web portal to all federal, state and local government web resources and services.